Regional Weather Roundup
Issued by NWS Little Rock, AR

Home | Current Version | Previous Version | Graphics & Text | Print | Product List | Glossary On
Versions: 1 2 3 4 5 6 7 8 9 10 11 12 13 14 15 16 17 18 19 20 21 22 23 24 25 26 27 28 29 30 31 32 33 34 35 36 37 38 39 40 41 42 43 44 45 46 47 48 49 50
000
ASUS44 KLZK 211605
RWRLZK

WEATHER ROUNDUP FOR ARKANSAS
NATIONAL WEATHER SERVICE LITTLE ROCK AR
1100 AM CDT MON AUG 21 2017

NOTE: "FAIR" INDICATES FEW OR NO CLOUDS BELOW 12,000 FEET WITH NO
SIGNIFICANT WEATHER AND/OR OBSTRUCTIONS TO VISIBILITY.

ARZ001-003-010-029-211700-
NORTHWEST ARKANSAS

CITY           SKY/WX    TMP DP  RH WIND       PRES   REMARKS
FAYETTEVILLE   SUNNY     85  74  69 VRB7      30.15S HX  92
FORT SMITH     SUNNY     87  74  64 NE5       30.11S HX  95
HARRISON       SUNNY     87  71  58 SW6       30.16F HX  93
BENTONVILLE    SUNNY     84  72  65 S9        30.15F HX  89
ROGERS         SUNNY     86  72  62 S9        30.16S HX  92
HIGHFILL       SUNNY     85  75  72 S7        30.15F HX  93
SPRINGDALE     SUNNY     84  73  70 S9        30.17S HX  91
$$

ARZ004-005-016-211700-
NORTH CENTRAL ARKANSAS

CITY           SKY/WX    TMP DP  RH WIND       PRES   REMARKS
BATESVILLE     SUNNY     88  75  66 CALM      30.14S HX  97
FLIPPIN        MOSUNNY   88  72  58 SW6       30.12S HX  94
MTN HOME       SUNNY     85  74  69 VRB5      30.15S HX  92
$$

ARZ040-041-211700-
WEST CENTRAL ARKANSAS

CITY           SKY/WX    TMP DP  RH WIND       PRES   REMARKS
MENA           SUNNY     88  79  74 SW3       30.15S HX 102
MOUNT IDA      SUNNY     86  70  58 VRB3      30.13R HX  90
$$

ARZ009-017-025-026-028-211700-
NORTHEAST ARKANSAS

CITY           SKY/WX    TMP DP  RH WIND       PRES   REMARKS
JONESBORO      SUNNY     89  79  72 CALM      30.13F HX 104
NEWPORT        SUNNY     88  78  72 VRB5      30.14S HX 101
WALNUT RIDGE   SUNNY     88  79  74 SE3       30.13F HX 102
BLYTHEVILLE    MOSUNNY   89  79  72 CALM      30.15S HX 104
NW BLYTHEVILLE MOSUNNY   90  79  70 CALM      30.14S HX 105
$$

ARZ022-023-033-042-044-211700-
CENTRAL ARKANSAS

CITY           SKY/WX    TMP DP  RH WIND       PRES   REMARKS
LITTLE ROCK    MOSUNNY   88  76  67 SW5       30.13S HX  99
JACKSONVILLE   MOSUNNY   89  77  65 W8        30.13S HX 101
CONWAY           N/A     90  73  58 VRB6      30.11F HX  98
SEARCY         SUNNY     90  79  70 VRB3      30.15S HX 106
HOT SPRINGS    SUNNY     88  75  65 SW7       30.14R HX  97
RUSSELLVILLE   SUNNY     88  75  65 S6        30.12S HX  97
CLINTON        FAIR      88  75  66 VRB3      30.13F HX  97
$$

ARZ036-211700-
EAST ARKANSAS

CITY           SKY/WX    TMP DP  RH WIND       PRES   REMARKS
WEST MEMPHIS   SUNNY     90  79  70 VRB3      30.13S HX 106
$$

ARZ050-053-066-070-073-211700-
SOUTHWEST ARKANSAS

CITY           SKY/WX    TMP DP  RH WIND       PRES   REMARKS
ARKADELPHIA    FAIR      88  77  69 VRB5      30.13S HX 100
CAMDEN         SUNNY     91  73  55 CALM      30.12S HX 100
TEXARKANA      MOSUNNY   85  76  74 VRB5      30.14R HX  94
EL DORADO      SUNNY     89  75  63 SW5       30.14R HX  99
DE QUEEN       SUNNY     86  78  77 VRB3      30.11S HX  98
$$

ARZ056-057-069-211700-
SOUTHEAST ARKANSAS

CITY           SKY/WX    TMP DP  RH WIND       PRES   REMARKS
PINE BLUFF     MOSUNNY   89  75  63 W7        30.13S HX  99
MONTICELLO     MOSUNNY   89  74  60 SW5       30.14R HX  98

$$





USA.gov is the U.S. government's official web portal to all federal, state and local government web resources and services.